ECMWFFLT2_700_temp_021.txt.gz
Temp
12 12 12 12 11 11 11 10 10 11 11 11 12 12 12 12 12 13 13 13 14 14 15 16 16 16 16 16 17 17 18 18 18 18 18 18 18 18 18 18 18 18 18 17 16 16 16 15 15 15 15 14 14 14 14 14 14 14 14 14 14 14 14
12 12 12 12 12 12 11 11 11 11 10 11 12 12 12 12 12 12 13 13 14 14 15 16 16 16 16 16 17 17 17 18 18 18 18 18 18 18 19 19 19 19 18 18 17 17 16 16 16 15 15 15 14 14 14 14 14 14 14 14 14 14 14
13 12 11 11 11 11 12 12 11 11 11 11 11 11 12 11 12 12 13 13 14 14 15 15 16 16 17 17 17 17 18 18 18 18 18 18 19 19 19 19 19 19 19 19 18 17 17 16 16 16 15 15 15 14 14 14 14 14 14 14 14 14 14
12 11 11 11 11 11 11 11 11 12 12 12 11 11 12 12 12 12 12 13 14 14 15 15 16 16 16 17 17 17 18 18 18 18 18 18 19 19 19 19 19 19 19 19 19 18 17 17 17 16 16 15 15 15 15 15 14 14 14 14 14 14 14
11 11 11 11 11 11 11 11 11 11 12 12 12 12 12 13 13 13 12 13 15 15 16 16 17 17 17 17 17 17 18 18 18 18 19 19 19 19 19 19 19 19 19 19 19 19 18 17 17 16 16 16 16 15 15 15 15 14 14 14 14 14 14
11 11 11 12 12 12 12 12 11 12 12 12 12 12 12 12 13 13 13 13 15 15 16 16 17 17 17 17 17 17 17 18 18 18 18 19 19 19 19 19 19 19 19 19 19 19 18 18 17 17 16 16 16 16 15 15 15 15 15 15 14 14 14
11 11 12 12 12 12 12 12 12 12 12 12 12 13 12 12 13 13 13 13 14 15 15 16 16 16 17 17 17 17 17 17 18 18 18 18 19 19 19 19 19 19 19 19 19 19 19 18 18 17 17 17 16 16 16 16 15 15 15 15 15 14 14
11 11 12 12 12 12 12 12 12 12 12 12 13 13 13 13 13 13 13 13 14 14 15 16 16 16 16 17 17 17 17 17 17 18 18 18 18 19 19 19 19 19 19 19 19 19 19 19 18 18 17 17 17 16 16 16 16 16 15 15 15 15 14
10 10 11 11 12 11 11 11 11 11 12 12 12 13 13 13 13 13 13 14 14 15 15 15 16 16 16 16 17 17 17 17 17 18 18 18 18 18 19 19 19 19 19 19 19 19 19 19 19 18 18 18 17 17 16 16 16 16 16 15 15 15 15
9 9 10 11 11 10 10 11 11 11 11 11 12 12 12 12 13 13 14 14 14 14 15 15 15 16 16 16 17 17 17 17 17 17 18 18 18 18 18 18 18 19 19 19 19 19 19 19 19 18 18 18 17 17 17 17 16 16 16 16 15 15 15
8 9 9 9 10 10 10 10 11 11 11 11 11 12 12 12 12 13 13 14 14 14 14 15 15 16 16 16 16 17 17 17 17 17 18 18 18 18 18 18 18 18 19 19 19 19 19 19 19 19 18 18 17 17 17 17 16 16 16 16 16 16 15
7 7 8 8 9 9 9 9 10 10 11 11 11 11 12 12 12 13 13 13 14 14 14 14 15 15 16 16 16 17 17 17 17 18 18 18 18 18 18 18 18 18 18 19 19 19 19 19 19 19 18 18 18 17 17 17 17 16 16 16 16 16 16
5 6 6 6 7 7 8 9 10 10 10 10 10 11 11 11 12 12 13 13 13 14 14 14 15 15 15 16 16 17 17 17 17 17 18 18 18 18 18 18 18 18 19 19 19 19 19 19 19 19 18 18 18 18 17 17 17 17 16 16 16 16 16
4 5 5 5 6 6 7 8 9 10 10 10 10 10 11 11 11 12 12 13 13 13 14 14 14 15 15 15 16 16 16 16 16 17 17 18 18 18 18 18 18 19 19 19 19 19 19 19 19 19 19 18 18 18 18 17 17 17 17 17 16 16 16
4 4 5 5 5 5 6 7 8 9 10 10 10 10 10 10 10 11 12 12 12 13 13 14 14 14 15 15 15 15 16 16 16 16 17 17 17 18 18 18 18 18 18 19 19 19 19 19 20 19 19 19 18 18 18 18 18 17 17 17 17 17 17
3 4 4 5 5 5 6 6 7 8 9 9 10 10 10 10 10 11 12 12 12 13 13 13 14 14 14 15 15 15 16 16 16 16 16 17 17 17 18 18 18 18 18 19 19 19 19 19 20 20 19 19 19 19 18 18 18 18 17 17 17 17 17
3 4 4 4 5 5 6 7 8 8 9 9 9 10 10 10 10 10 11 11 12 13 14 14 14 14 14 15 15 15 16 16 16 16 16 16 17 17 17 17 18 18 18 18 19 19 19 19 20 20 20 20 19 19 19 19 18 18 18 17 17 17 17
3 3 4 4 5 6 7 7 7 8 9 9 9 9 10 10 10 10 11 11 12 13 13 13 14 14 15 15 15 15 16 16 16 16 17 17 17 17 17 17 18 18 18 18 19 19 19 20 20 20 20 20 20 19 19 19 18 18 18 18 18 17 17
2 3 3 4 5 6 7 7 7 8 8 8 9 9 10 10 11 11 11 12 12 13 13 13 14 14 15 15 15 16 16 16 16 17 17 17 17 17 17 17 17 18 18 18 19 19 19 19 20 20 20 20 20 20 19 19 19 19 18 18 18 18 18
2 3 3 4 5 6 6 7 7 8 8 8 8 9 9 10 10 11 11 12 12 13 13 13 14 14 15 15 16 16 16 16 17 17 17 17 17 17 17 17 18 18 18 18 19 19 19 19 20 20 20 20 20 20 20 19 19 19 19 18 18 18 18
2 3 4 4 4 5 6 7 7 7 7 7 8 8 9 10 10 11 11 12 13 13 13 14 14 14 14 15 16 16 16 16 17 17 17 17 17 17 17 17 18 18 18 18 18 18 19 19 19 20 20 20 20 20 20 20 19 19 19 19 18 18 18
1 3 4 4 4 5 6 7 7 7 7 7 7 8 8 9 10 11 11 12 12 13 13 14 14 14 14 15 16 16 16 16 17 17 17 17 17 17 17 17 18 18 18 18 18 18 19 19 19 19 20 20 20 20 20 20 19 19 19 19 19 18 18
1 2 3 4 5 5 5 6 7 7 7 7 7 7 8 9 10 10 11 12 12 13 13 14 14 15 15 15 16 16 16 16 17 17 17 17 17 17 17 17 18 18 18 18 18 18 18 19 19 19 19 20 20 20 20 20 20 19 19 19 19 19 18
-1 1 2 3 4 4 5 5 6 7 7 7 7 7 8 9 10 10 11 12 12 13 13 14 14 15 15 15 16 16 16 16 16 16 17 17 17 17 17 17 18 18 18 18 18 18 18 18 19 19 19 19 20 20 20 20 20 20 19 19 19 19 18
-1 -0 1 2 3 3 4 5 6 7 7 7 7 7 8 8 10 10 11 12 13 13 13 14 14 15 15 15 16 16 16 16 16 16 16 17 17 17 17 17 17 18 18 18 18 18 18 18 18 19 19 19 19 19 19 20 20 20 19 19 19 19 19
-2 -1 0 1 2 3 4 5 5 6 6 6 7 7 8 8 9 10 10 11 12 13 13 14 14 15 15 15 16 16 16 16 16 16 16 16 17 17 17 17 17 17 18 18 18 18 18 18 18 18 18 19 19 19 19 19 19 19 19 19 19 19 18
-2 -1 -1 -0 1 2 4 4 5 6 6 7 7 7 8 8 9 10 10 11 12 13 14 14 14 15 15 15 16 16 16 16 16 16 16 16 16 17 17 17 17 17 17 18 18 18 18 18 18 18 18 19 19 19 19 19 19 19 19 19 19 18 18
-1 -1 -1 -0 1 3 4 4 5 5 6 7 7 7 8 8 8 9 11 11 12 13 13 14 14 15 15 15 15 15 15 15 15 15 16 16 16 16 16 17 17 17 17 17 18 18 18 18 18 18 18 18 18 18 19 18 18 18 18 18 18 18 18
-2 -2 -1 -0 2 3 3 4 4 4 5 6 6 7 8 8 8 9 10 11 12 13 13 14 14 15 15 15 15 14 14 14 15 15 15 15 16 16 16 16 17 17 17 17 17 18 18 18 18 18 18 18 18 18 18 18 18 18 18 18 18 18 18
-3 -2 -2 -0 2 3 2 3 3 4 4 5 6 7 8 8 8 9 10 11 12 12 13 13 14 14 14 14 13 12 13 13 14 14 14 15 15 15 16 16 16 17 17 17 17 17 17 18 17 18 18 18 18 18 18 18 18 18 18 18 18 18 18
-3 -2 -1 -0 1 2 2 2 2 3 4 5 5 6 7 8 8 8 9 10 11 11 12 12 12 11 12 12 12 12 12 13 13 14 14 14 15 15 15 15 16 16 17 17 17 17 17 17 17 17 18 18 18 18 18 18 18 18 18 18 18 18 17
-3 -2 -1 -1 0 1 2 2 2 2 3 4 5 5 6 7 7 7 7 9 9 9 10 10 10 10 10 11 11 12 12 13 13 13 14 14 14 15 15 15 15 15 16 16 17 17 17 17 17 17 17 17 17 17 17 17 17 17 17 17 17 17 17
-3 -2 -0 -0 -0 1 2 1 1 2 3 3 4 5 6 7 7 6 6 7 8 8 9 9 9 10 11 11 12 12 12 13 13 13 13 14 14 14 14 15 15 15 15 16 16 16 16 16 16 16 16 17 17 17 17 17 17 17 17 17 17 17 17
-3 -1 0 -0 -0 0 1 1 2 2 2 3 4 5 5 6 7 6 6 6 7 7 8 8 9 10 10 11 11 12 12 12 13 13 13 13 14 14 14 14 15 15 15 15 15 15 16 16 16 16 16 16 16 16 16 16 16 16 16 16 16 16 16
-2 -0 0 -0 -0 0 1 1 1 2 2 3 3 4 5 6 7 6 5 5 6 6 7 7 8 9 10 11 11 11 12 12 12 12 13 13 13 13 14 14 14 14 14 14 15 15 15 15 15 16 16 16 16 16 16 16 16 16 16 16 16 16 16
-2 -1 -0 -0 0 1 1 1 1 1 2 2 3 3 4 5 6 6 5 5 6 6 7 7 7 8 9 9 10 10 11 11 12 12 12 12 12 13 13 13 13 13 14 14 14 14 14 15 15 15 15 16 16 16 16 16 16 16 16 16 16 16 16
-3 -2 -1 -1 -0 1 1 1 1 1 2 2 2 3 3 4 6 6 6 5 6 6 7 7 7 8 8 8 9 9 10 11 11 12 12 12 12 13 13 13 13 13 13 13 14 14 14 14 14 15 15 15 15 15 15 15 15 15 15 15 16 16 16

ECMWFFLT2_700_temp_024.txt.gz
Temp
11 12 12 12 12 13 13 13 13 14 14 14 15 15 15 15 15 16 16 16 16 16 16 16 16 16 16 17 17 17 17 18 17 17 17 18 18 18 18 18 18 18 18 18 17 17 17 16 16 15 15 15 15 15 15 15 14 14 14 14 14 14 14
12 11 12 12 12 13 14 13 13 14 13 13 14 15 15 14 14 16 17 17 17 17 17 17 16 16 16 16 17 17 17 17 17 18 18 18 18 18 18 18 18 18 18 18 18 17 17 17 16 16 16 15 15 15 15 15 15 14 14 14 14 14 14
12 11 12 12 12 13 13 14 14 14 14 14 14 14 14 14 14 16 17 18 17 17 17 17 17 17 17 17 17 17 17 17 17 18 18 18 18 18 18 18 18 18 18 18 18 18 18 17 17 16 16 15 15 15 15 15 15 15 14 14 14 14 14
12 12 12 13 13 12 13 13 14 14 14 14 14 14 14 15 15 16 17 18 18 17 17 17 17 17 17 17 17 17 17 17 17 18 18 18 18 18 18 18 18 19 19 19 18 18 18 18 17 17 16 16 15 15 15 15 15 15 14 14 14 14 14
13 12 13 13 13 13 13 13 14 14 14 14 14 14 15 16 16 16 16 17 18 18 17 17 17 17 17 17 17 17 17 17 17 17 18 18 18 18 18 19 19 19 19 19 18 18 18 18 17 17 16 16 16 15 15 15 15 15 15 15 15 14 14
13 13 13 13 14 13 13 13 14 14 14 14 15 15 15 15 16 17 16 17 18 18 16 17 17 17 17 17 17 17 17 17 17 18 17 18 19 19 19 19 19 19 19 19 19 18 18 18 18 17 17 17 16 16 16 15 15 15 15 15 15 15 15
13 14 13 13 13 13 13 13 14 14 14 14 15 15 15 15 15 16 16 17 18 17 16 16 17 17 17 17 17 17 17 17 17 17 17 18 18 19 19 19 19 19 19 19 19 19 18 18 18 18 17 17 17 16 16 16 15 15 15 15 15 15 15
13 14 13 13 13 13 14 14 14 14 14 15 15 15 16 16 16 16 16 16 17 17 16 16 16 16 17 17 17 17 17 17 17 17 17 17 18 18 18 19 19 19 19 19 18 19 19 18 18 18 18 18 17 17 16 16 16 16 15 15 15 15 15
12 12 13 13 13 13 14 14 14 14 14 14 15 15 15 16 16 16 16 17 17 16 16 16 16 16 17 17 17 17 17 17 17 17 17 17 18 18 18 18 18 18 19 19 18 19 19 19 18 18 18 18 18 17 17 17 16 16 16 16 15 15 15
12 12 13 13 13 13 13 14 14 14 14 14 15 15 15 15 15 16 16 17 18 16 15 16 16 16 16 17 17 17 17 17 17 17 17 17 17 18 18 18 18 18 18 18 18 19 19 19 18 18 18 18 18 18 17 17 17 16 16 16 16 16 15
11 12 11 12 13 13 13 14 13 13 14 14 15 15 15 15 15 15 16 16 17 16 15 16 16 16 16 16 17 17 17 17 17 17 17 17 17 18 18 18 18 18 18 18 18 19 19 19 19 19 18 18 18 18 18 17 17 17 16 16 16 16 16
8 9 9 10 12 12 13 13 13 13 13 14 14 14 15 15 15 15 15 15 15 16 15 15 16 16 16 16 16 17 17 17 17 17 17 17 18 18 18 18 18 18 18 18 18 18 19 19 19 19 19 18 18 18 18 18 17 17 17 17 16 16 16
7 7 8 9 10 10 10 11 11 12 12 12 13 13 14 14 14 15 15 14 14 15 15 15 15 15 15 15 16 16 16 16 16 17 17 17 17 17 18 18 18 18 18 18 18 18 18 19 19 19 19 19 19 18 18 18 18 17 17 17 17 16 16
6 6 7 8 8 9 9 9 10 10 10 11 11 12 12 13 13 13 13 13 13 14 14 14 15 15 15 15 15 15 15 16 16 16 16 17 17 17 17 17 18 18 18 18 18 18 18 19 19 19 19 19 19 19 18 18 18 18 17 17 17 17 17
6 6 6 7 8 8 8 9 9 9 10 10 10 11 11 11 11 12 12 12 12 13 13 13 14 14 14 14 14 14 15 16 16 16 17 17 17 17 17 17 17 18 18 18 18 18 18 18 19 19 19 19 19 19 18 18 18 18 17 17 17 17 17
7 7 6 7 7 7 8 8 9 9 9 10 10 10 10 11 11 12 12 12 12 13 13 13 13 13 14 14 14 14 15 16 16 16 17 17 17 17 16 16 17 17 17 17 18 18 18 18 18 19 19 19 19 19 19 19 18 18 17 17 17 17 17
8 7 6 6 7 7 8 9 9 9 9 10 10 10 11 11 11 11 12 12 13 13 13 13 13 13 14 14 14 14 15 15 15 16 16 17 17 17 17 16 17 17 17 17 18 18 18 18 18 19 19 19 19 19 19 19 18 18 18 18 17 17 17
7 6 5 6 7 8 9 9 9 9 10 10 10 11 11 11 11 11 12 12 12 12 12 12 12 12 13 14 14 14 14 15 15 16 16 16 17 17 17 17 17 17 17 17 17 18 18 18 18 18 19 19 19 19 19 19 19 18 18 18 18 17 18
5 6 5 6 7 8 8 8 8 8 9 9 10 10 10 10 10 11 11 11 11 11 11 12 12 12 13 14 14 14 14 15 15 16 16 16 17 17 17 17 17 17 17 17 18 18 18 18 18 19 19 19 19 19 19 19 19 19 19 18 18 18 18
4 5 6 7 8 8 7 7 7 7 8 8 9 9 9 9 9 10 10 11 11 11 12 12 12 13 13 14 14 14 14 15 16 16 16 16 17 17 17 17 17 17 17 17 18 18 18 18 18 19 19 19 19 19 19 19 19 19 19 19 18 18 18
4 5 6 7 7 7 7 7 7 7 7 7 8 10 10 9 9 10 10 11 12 12 12 12 12 13 13 14 14 14 15 15 16 16 16 16 16 17 17 17 17 17 17 18 18 18 18 18 18 19 19 19 19 20 19 19 19 19 19 19 19 18 18
4 5 6 7 7 8 8 8 7 6 7 7 8 9 10 9 8 9 10 11 11 12 12 12 12 13 13 13 14 14 15 15 15 16 16 16 16 17 17 17 17 18 18 18 18 18 18 18 18 18 19 19 19 20 20 20 20 19 19 19 19 19 18
3 4 6 7 7 8 8 7 6 6 7 7 7 8 9 9 9 9 10 10 11 11 12 12 12 13 13 13 14 14 15 15 16 16 16 16 17 17 17 17 17 18 18 18 18 18 18 18 18 18 19 19 19 19 20 20 20 20 19 19 19 19 19
3 4 5 6 7 7 6 6 6 6 6 6 7 9 9 9 9 9 9 10 11 11 11 12 12 12 13 13 14 14 15 15 16 16 16 16 17 17 17 17 17 18 18 18 18 18 18 18 18 18 18 19 19 19 19 20 20 20 19 19 19 19 19
2 3 4 5 6 6 5 5 5 5 6 7 8 9 9 8 8 9 9 9 10 11 11 12 12 12 13 13 14 14 15 15 15 16 16 16 17 17 17 17 17 18 18 18 18 18 18 18 18 18 18 18 19 19 19 19 19 19 19 19 19 19 19
2 3 3 4 5 5 4 4 5 5 6 7 8 8 7 8 8 9 9 9 10 10 11 12 12 13 13 13 14 14 14 15 15 16 16 16 17 17 17 17 17 17 18 18 18 18 18 18 18 18 18 18 19 19 19 19 19 19 19 19 19 19 19
2 2 3 4 4 4 3 4 4 4 5 7 7 6 6 7 8 8 9 9 10 10 11 12 12 13 13 13 14 14 14 15 15 16 16 16 16 17 17 17 17 17 18 18 17 18 18 18 18 18 18 18 18 19 19 19 19 19 19 19 20 20 20
1 2 3 3 3 2 2 3 4 4 5 6 6 6 6 6 7 8 8 9 9 10 11 11 12 13 13 13 14 14 14 15 15 15 16 16 16 17 17 17 17 17 18 18 18 17 18 18 18 18 18 18 18 18 19 19 19 19 19 19 19 19 19
-0 1 2 2 2 2 2 2 3 4 4 5 5 6 6 6 6 7 8 8 9 10 11 11 12 12 13 13 14 14 14 15 15 15 16 16 16 16 17 17 17 17 17 17 18 18 17 18 18 18 18 18 18 18 18 18 18 19 19 19 19 19 19
-2 -1 1 1 1 2 2 2 3 4 4 4 4 5 5 5 6 7 7 8 9 10 11 11 12 12 13 13 14 14 14 15 15 15 15 16 16 16 16 16 17 17 17 17 17 18 17 17 18 18 18 18 18 18 18 18 18 18 18 19 19 19 19
-2 -2 -1 -0 0 1 1 2 3 3 4 4 4 4 5 5 5 6 7 8 9 10 10 11 12 12 13 13 14 14 14 15 15 15 15 15 15 16 16 16 16 16 17 17 17 17 17 17 17 17 18 18 18 18 18 18 18 18 18 18 18 18 18
-3 -3 -2 -1 -0 0 1 2 2 2 2 3 3 3 4 5 5 5 6 7 8 9 10 11 12 12 13 13 13 14 14 14 15 15 15 15 15 15 15 15 15 15 16 16 16 16 17 17 17 17 17 17 17 17 17 17 17 17 18 18 18 18 18
-3 -3 -2 -2 -1 0 1 2 2 1 1 2 3 3 4 4 5 5 5 6 7 8 9 10 11 12 12 13 13 13 14 14 14 14 14 14 14 14 14 14 14 15 15 15 15 16 16 16 17 17 17 17 17 17 17 17 17 17 17 17 18 18 18
-3 -3 -2 -2 -2 -1 0 0 1 1 1 2 3 3 3 4 4 5 5 6 6 7 8 9 9 10 11 12 12 12 12 13 13 13 13 13 13 13 13 14 14 14 14 15 15 15 15 16 16 16 17 17 17 17 17 17 17 17 17 17 17 17 17
-3 -3 -2 -3 -3 -2 -0 1 1 1 2 2 2 3 3 3 4 4 5 5 5 6 6 7 8 9 10 10 10 10 10 11 11 12 12 12 13 13 13 13 14 14 14 14 15 15 15 15 15 16 16 16 16 16 16 16 16 16 16 16 16 17 17
-3 -3 -3 -3 -3 -2 0 1 1 1 1 2 2 2 2 3 4 4 5 5 5 5 6 7 8 8 8 9 9 9 9 10 10 11 11 12 12 13 13 13 13 14 14 14 14 15 15 15 15 15 15 15 15 16 16 16 16 16 16 16 16 16 16
-3 -3 -3 -3 -3 -1 0 1 1 1 1 2 2 2 2 2 3 4 4 5 5 5 6 6 7 7 7 8 8 9 9 9 10 10 11 11 12 12 13 13 13 13 14 14 14 14 14 15 15 15 15 15 15 15 15 15 15 16 16 16 16 16 16

ECMWFFLT2_700_temp_030.txt.gz
Temp
16 16 16 16 17 17 17 17 17 17 17 18 18 19 19 20 19 19 20 20 19 20 20 20 20 20 20 20 20 20 20 19 18 17 17 17 16 15 16 16 17 16 16 16 15 14 13 14 16 16 16 16 16 16 16 16 15 15 15 15 15 15 14
17 16 16 16 17 17 17 17 17 17 17 18 18 19 19 19 18 19 21 21 20 20 20 20 20 20 20 20 20 20 20 20 19 18 17 17 16 16 16 16 17 17 17 17 16 14 14 16 16 16 17 16 16 16 16 16 16 16 15 15 15 15 15
17 16 16 16 16 17 17 17 17 17 18 18 18 18 18 18 17 19 21 21 21 20 20 20 20 20 20 20 20 20 20 20 19 18 17 17 17 17 16 16 16 16 16 16 16 15 15 16 16 16 16 16 16 16 16 16 16 16 16 16 16 15 15
17 16 16 16 16 17 17 18 17 18 18 18 18 18 18 18 18 18 19 20 21 21 21 20 20 20 19 20 20 20 20 20 20 19 18 17 17 17 17 16 16 17 17 17 17 16 16 16 16 16 16 16 17 16 16 16 16 16 16 16 16 16 15
17 17 16 16 16 17 17 18 18 18 18 18 18 18 19 19 19 18 18 19 21 22 21 21 20 20 19 19 20 20 20 20 20 19 18 18 17 17 17 17 17 17 17 17 17 17 15 15 16 17 16 16 17 16 16 16 16 16 16 16 16 16 16
18 17 16 16 16 17 17 17 18 18 18 18 18 18 18 19 19 20 19 19 21 22 21 21 21 20 19 19 20 20 20 20 20 19 19 18 17 18 17 17 17 17 17 17 17 17 16 14 15 17 17 17 17 17 16 16 16 16 16 16 16 16 16
18 18 17 16 16 17 17 17 18 18 18 18 18 18 19 19 19 20 20 20 21 21 21 21 21 20 20 19 19 20 19 20 20 19 19 19 18 18 17 17 17 17 17 17 17 17 17 16 16 17 17 17 17 17 17 16 16 16 16 16 16 16 16
17 18 17 16 16 17 17 17 18 18 18 18 19 19 19 19 19 20 20 20 20 20 20 21 20 20 20 19 19 19 19 19 20 20 19 19 19 18 17 17 17 17 17 18 18 18 18 17 17 17 18 17 17 17 17 17 17 16 16 16 16 16 16
16 18 17 17 16 17 18 18 17 18 19 19 18 19 19 19 19 20 19 20 20 19 19 20 19 19 20 20 19 20 19 19 20 20 20 20 19 18 17 17 17 17 17 18 18 18 18 18 17 17 18 18 18 18 17 17 17 16 16 16 16 17 16
16 17 17 17 17 16 17 18 18 18 18 19 19 19 19 19 19 19 20 20 20 18 19 19 19 19 20 20 19 20 20 19 19 20 19 19 19 19 18 18 17 17 17 17 18 18 18 18 17 17 18 18 18 18 18 17 17 17 16 16 16 16 17
16 16 16 17 17 17 17 18 18 18 18 19 19 19 19 19 19 19 20 20 19 18 19 19 19 19 20 19 19 19 19 19 18 19 19 19 19 19 18 18 17 17 17 17 18 18 18 18 17 17 18 18 18 18 18 18 17 17 17 16 16 16 16
15 15 15 15 16 17 17 18 18 18 18 18 19 19 19 19 19 19 19 19 19 19 19 19 19 19 19 19 19 19 19 18 18 18 19 19 18 18 18 17 17 17 17 17 18 18 18 18 17 17 18 18 18 18 18 18 17 17 17 17 17 16 16
13 14 15 14 14 15 16 17 18 18 18 18 18 19 19 19 19 19 19 19 19 19 19 19 19 19 19 19 19 18 18 17 18 18 18 18 18 17 17 17 17 17 17 17 18 18 18 17 17 18 18 18 18 18 18 18 18 18 18 17 17 17 17
13 14 14 14 14 14 15 16 18 18 18 18 18 19 19 19 19 19 19 19 19 19 19 19 19 19 19 19 18 18 17 17 17 18 18 18 18 18 18 18 17 17 17 18 18 18 17 17 17 18 18 18 18 18 18 18 18 18 18 18 18 17 17
12 13 14 14 14 14 14 15 17 18 18 18 18 18 19 19 18 19 19 18 18 19 18 19 19 18 18 18 17 17 17 17 17 17 18 18 18 18 18 18 18 18 18 17 17 17 17 17 17 18 18 18 18 18 18 18 18 18 18 18 18 18 18
11 12 13 14 14 14 13 14 16 18 18 18 18 18 18 19 18 19 19 18 18 18 18 18 18 17 17 17 16 16 16 16 16 17 17 17 17 17 17 17 17 17 17 17 17 17 17 17 17 17 18 18 18 18 19 19 19 18 18 18 18 18 18
11 11 13 14 14 13 13 14 16 16 17 18 18 18 18 18 18 18 18 18 18 18 17 17 17 16 16 16 16 16 16 16 16 16 16 16 16 16 16 16 16 17 17 17 16 17 17 17 17 17 17 18 18 18 18 19 19 19 19 19 19 19 19
10 11 12 14 13 12 13 14 15 15 16 17 18 18 18 18 18 18 18 18 17 17 16 16 16 16 16 16 15 15 15 15 15 15 15 16 16 16 16 16 16 16 16 16 16 16 16 17 17 17 17 18 18 18 18 19 19 19 19 19 19 19 19
10 11 12 12 12 13 14 14 14 15 15 16 16 17 18 18 18 18 17 17 17 16 15 15 15 15 15 15 15 15 15 15 15 15 15 15 15 15 15 15 16 16 16 15 15 15 16 16 16 16 17 18 18 18 18 19 19 19 19 19 19 19 20
10 11 11 11 11 13 13 13 14 15 15 15 15 16 18 18 17 17 16 16 16 15 15 15 15 15 14 14 14 14 14 14 15 15 15 15 15 16 16 15 16 16 15 15 15 15 16 17 16 16 17 17 18 18 18 18 19 19 19 19 19 19 20
9 10 11 12 12 13 13 13 14 15 15 15 15 15 16 16 16 16 15 15 15 15 15 15 14 14 13 13 13 14 14 14 14 15 15 15 15 15 15 15 15 16 16 16 16 16 16 17 17 17 17 17 17 18 18 18 19 19 19 19 19 20 20
8 9 10 11 12 12 12 12 13 14 14 13 14 14 14 14 15 15 15 15 15 15 15 14 13 12 12 13 13 13 14 14 14 14 14 14 15 15 15 15 15 16 16 16 16 16 17 17 17 17 17 17 17 17 18 18 18 19 19 19 19 19 20
7 8 9 11 12 12 12 12 13 13 12 12 13 13 13 13 13 14 14 15 14 13 13 13 12 12 12 13 13 13 13 13 13 14 14 14 14 15 14 14 15 16 16 16 16 17 17 17 17 17 17 17 17 18 18 18 18 19 19 19 19 19 19
6 7 8 10 11 10 10 11 12 12 11 11 12 12 12 12 12 13 13 13 13 12 12 11 11 11 12 12 13 12 12 13 13 14 14 14 15 15 15 15 15 16 16 16 16 17 17 17 17 17 17 17 18 18 18 18 18 18 19 19 19 19 19
6 6 8 10 10 8 9 10 10 11 11 12 12 11 10 10 11 11 11 10 11 11 11 10 10 10 11 12 12 12 12 13 14 14 14 14 14 15 15 15 16 16 16 16 16 17 17 17 17 17 17 18 18 18 18 18 18 18 19 19 19 19 19
6 6 8 9 8 7 8 8 8 9 10 9 9 8 7 8 9 10 9 8 9 9 9 10 10 10 10 11 12 12 13 13 13 14 14 14 14 15 15 15 15 16 16 16 16 16 17 17 17 17 17 18 18 18 18 18 18 18 18 19 19 19 19
5 6 7 8 6 6 7 8 8 8 7 6 5 6 6 6 8 9 8 8 8 9 9 10 10 10 11 11 12 12 13 13 13 13 14 14 14 15 15 15 15 16 16 16 16 16 17 17 17 17 17 18 18 18 18 18 18 18 18 18 19 19 19
4 6 6 6 5 5 5 5 5 5 5 4 4 5 5 6 7 8 8 8 8 8 9 9 9 9 10 11 11 12 12 13 13 13 14 14 14 15 15 15 15 16 16 16 16 16 17 17 17 17 17 17 18 18 18 18 18 18 18 18 18 19 19
3 4 4 4 5 4 4 3 4 4 4 4 3 4 5 6 6 6 7 7 7 7 8 8 8 9 10 10 11 12 12 12 13 13 14 14 14 14 15 15 15 15 15 16 16 16 16 17 17 17 17 17 18 18 18 18 18 18 18 18 18 19 19
2 3 3 4 4 3 3 3 4 4 4 4 3 4 5 6 6 6 6 7 7 7 8 8 9 9 10 10 11 11 11 12 12 13 13 13 14 14 14 14 15 15 15 16 16 16 16 17 17 17 17 17 18 18 18 18 18 18 18 18 18 18 18
1 2 3 3 3 3 2 3 4 4 4 3 3 4 5 6 6 6 6 6 7 7 7 8 8 9 10 10 11 11 11 12 12 12 13 13 13 13 14 14 14 15 15 15 16 16 16 16 16 16 17 17 17 18 18 18 18 18 18 18 18 18 18
1 1 2 2 2 2 2 2 3 4 4 3 4 5 6 6 6 6 6 7 7 7 7 8 8 8 9 10 11 11 12 12 12 12 13 13 13 13 13 14 14 14 15 15 16 16 16 16 16 16 16 17 17 17 17 17 18 18 18 18 18 18 18
0 1 2 1 2 2 2 2 3 4 4 4 4 5 6 6 6 6 6 7 7 7 7 7 8 8 9 9 10 11 12 12 12 12 13 13 13 13 14 14 14 14 14 15 15 15 16 16 16 16 16 16 17 17 17 17 17 17 18 18 18 18 18
0 1 1 1 1 2 2 2 3 3 3 3 4 5 5 6 6 7 7 7 7 7 7 7 8 8 9 9 10 10 11 12 12 12 12 13 13 13 13 14 14 14 14 15 15 15 15 15 16 16 16 16 16 17 17 17 17 17 17 17 17 17 18
-0 0 1 1 1 1 1 2 2 1 1 2 3 5 6 6 6 6 7 7 7 7 7 7 8 8 8 9 9 10 10 11 11 12 12 12 12 13 13 14 14 14 14 15 15 15 15 15 15 16 16 16 16 17 17 17 17 17 17 17 17 17 17
-1 -0 0 0 0 0 0 1 1 1 1 2 3 5 6 6 6 6 6 6 7 7 7 7 7 8 8 8 9 9 10 10 11 11 12 12 12 12 12 13 14 14 14 14 15 15 15 15 15 15 16 16 16 16 16 16 16 16 16 16 17 17 17
-2 -1 -1 -0 -0 -0 -0 0 1 1 1 2 2 4 5 5 6 6 6 6 7 7 7 8 8 8 8 8 9 9 9 10 10 11 11 12 12 11 12 12 13 13 13 14 14 14 14 14 14 15 15 15 16 16 16 16 16 16 16 16 16 16 16

ECMWFFLT2_700_temp_033.txt.gz
Temp
15 16 16 16 16 16 16 16 16 16 16 17 17 17 17 17 16 16 17 17 18 18 18 19 19 19 20 20 19 19 19 19 19 18 18 18 18 18 18 18 17 17 17 17 16 16 16 16 16 16 16 16 15 15 15 15 15 15 14 14 14 14 14
16 16 16 16 16 17 17 16 16 16 16 17 17 17 16 16 14 16 18 18 18 18 18 19 19 19 19 20 19 19 19 19 19 18 18 18 18 18 18 18 17 17 17 17 17 17 17 17 17 17 16 16 16 15 15 15 15 15 15 14 14 14 14
16 16 16 16 16 16 17 17 16 16 16 16 17 16 15 15 14 16 18 18 18 18 18 19 19 19 19 19 20 20 19 19 19 19 19 18 18 18 18 18 17 17 17 17 17 17 17 17 16 16 16 16 16 15 15 15 15 15 15 14 14 14 14
16 16 16 16 16 16 17 17 16 16 17 17 17 17 16 16 15 16 17 18 18 19 19 19 19 20 20 20 20 20 19 19 19 19 19 18 18 18 18 18 17 17 17 17 18 17 17 17 16 16 16 16 16 16 15 15 15 15 14 14 14 14 14
16 16 16 16 16 16 16 17 17 16 17 17 17 17 17 17 16 16 17 17 19 20 20 20 20 20 20 20 20 20 20 19 19 19 19 18 18 18 18 18 18 17 17 17 17 17 17 17 16 16 16 16 16 16 16 15 15 15 15 14 14 15 15
17 17 17 16 16 16 16 17 17 17 17 17 17 16 17 18 17 17 17 17 19 21 20 20 20 20 20 20 20 20 20 20 19 19 19 19 19 19 19 18 18 18 17 17 17 17 17 17 17 17 17 17 17 16 16 16 15 15 15 15 15 15 15
16 17 17 16 16 16 16 17 17 17 17 17 17 16 17 18 17 18 18 18 19 20 20 21 21 20 20 20 20 20 20 20 19 19 19 19 19 19 19 18 18 18 18 18 17 17 17 17 18 17 17 17 17 17 16 16 16 15 15 15 15 15 15
15 16 17 17 16 16 17 17 17 17 17 17 17 17 17 18 18 18 18 17 19 20 20 21 21 20 20 20 20 20 19 19 20 19 19 18 18 18 18 18 18 18 18 18 17 17 17 18 18 18 18 18 17 17 17 16 16 15 15 15 15 15 15
15 15 16 16 16 16 17 17 17 17 18 17 17 18 18 18 18 18 17 17 19 20 20 20 20 20 20 20 19 20 19 20 20 19 19 18 18 18 18 18 18 18 18 17 17 18 18 18 18 18 18 18 18 17 17 17 16 16 15 15 15 15 15
13 13 15 16 16 16 16 17 17 17 17 18 18 18 18 17 18 19 18 18 19 20 20 20 20 20 20 19 19 20 20 20 19 19 19 19 19 19 18 18 18 18 17 17 17 18 18 18 18 18 18 18 18 18 17 17 17 16 16 15 15 15 15
12 14 15 16 16 16 16 17 17 17 17 18 18 18 18 18 18 18 19 19 19 20 20 20 20 20 19 19 19 19 19 19 19 19 19 19 19 19 19 18 18 18 18 18 18 18 18 18 18 18 18 18 18 18 17 17 17 17 16 16 16 16 16
12 14 15 16 16 16 16 17 17 17 17 17 18 18 18 18 18 18 19 19 19 19 20 20 20 20 19 19 19 19 19 19 19 19 19 19 19 19 18 18 18 18 18 18 18 18 17 18 18 18 18 18 18 18 18 17 17 17 17 16 16 16 16
12 13 13 14 15 16 16 17 17 17 17 17 18 18 18 18 18 18 19 19 19 19 19 19 20 19 19 19 19 19 19 19 19 19 19 19 18 18 18 18 18 18 18 18 18 17 17 17 17 17 17 18 18 18 18 18 17 17 17 17 17 16 16
11 12 13 14 14 15 16 16 17 17 18 18 17 18 18 19 19 19 19 19 19 19 19 19 19 19 19 19 18 19 19 19 19 19 19 19 18 18 17 17 17 17 18 17 17 17 17 17 17 17 18 18 18 18 18 18 18 18 18 17 17 17 17
10 12 13 13 14 15 15 15 16 17 17 18 18 18 18 19 19 19 19 18 18 18 19 19 18 18 18 18 18 18 18 18 19 19 18 18 18 18 17 17 17 17 17 17 17 17 17 17 17 17 18 18 18 18 18 18 18 18 18 18 18 18 17
10 11 12 12 13 14 14 15 16 16 17 17 18 18 18 19 19 19 19 18 17 17 18 18 17 17 17 17 18 18 17 18 18 18 17 17 17 17 17 17 17 17 17 17 17 17 17 17 17 17 18 18 18 18 18 18 18 18 18 18 18 18 18
8 10 11 12 12 13 13 15 16 16 16 17 18 18 18 18 19 18 18 18 17 17 18 17 17 17 17 17 17 17 17 17 17 17 17 17 17 17 17 17 17 17 17 17 17 17 17 17 17 17 18 18 18 18 18 18 18 18 18 18 19 18 18
7 9 10 11 11 11 13 15 15 16 16 16 17 18 18 18 19 19 18 17 17 17 17 17 17 17 17 17 17 17 17 17 17 17 16 16 17 17 17 17 17 17 17 17 16 16 17 17 17 17 17 17 18 18 18 18 18 18 18 19 19 19 19
6 8 9 9 10 11 13 14 15 15 15 15 16 16 17 16 16 17 17 16 16 17 17 16 16 16 16 16 17 16 16 17 17 16 16 16 16 16 16 16 17 17 16 16 16 16 16 16 16 16 16 17 17 18 18 18 18 18 19 19 19 19 19
6 7 8 9 10 12 14 14 14 14 14 15 15 15 14 14 14 15 17 16 16 16 16 15 15 16 16 16 16 16 16 16 17 16 16 16 16 16 16 16 16 16 16 16 16 16 16 16 16 16 16 16 17 17 17 18 18 19 19 19 19 19 19
5 6 8 10 12 12 13 12 12 12 13 13 14 14 13 13 14 15 15 16 16 15 15 15 15 15 15 15 15 15 15 16 16 16 15 15 15 15 15 15 15 16 15 15 15 16 16 16 16 16 16 16 16 17 17 17 18 18 19 19 19 19 19
5 5 6 9 11 10 10 10 11 12 12 13 14 14 12 12 14 14 14 15 15 15 15 15 15 15 15 15 14 15 15 15 15 15 15 15 15 15 15 15 15 15 15 15 15 15 15 15 16 16 16 16 17 17 17 17 17 18 18 19 19 19 19
4 5 5 7 8 8 8 9 11 12 12 12 14 13 10 10 11 12 13 14 14 14 15 14 14 15 15 14 13 13 14 14 14 15 15 15 15 15 15 15 16 16 15 15 15 15 15 15 15 16 16 16 17 17 17 17 17 18 18 18 18 18 19
4 5 5 6 7 7 7 7 9 11 12 13 13 10 7 8 9 10 11 12 12 13 14 14 13 13 13 13 12 12 13 13 13 14 14 15 15 15 15 15 15 15 15 15 15 15 15 15 15 16 16 16 17 17 17 17 18 18 18 18 18 18 18
4 4 5 6 6 6 6 6 8 11 12 12 10 7 6 7 8 8 10 12 11 12 13 13 13 12 11 12 11 12 12 13 13 14 14 14 14 14 14 14 15 15 15 15 15 15 16 16 16 16 16 17 17 17 17 17 18 18 18 18 18 18 18
4 4 4 5 5 6 6 6 7 10 11 8 6 5 6 7 7 8 9 10 11 11 11 12 12 11 11 11 12 12 12 13 14 14 14 14 14 14 14 14 14 14 15 15 15 15 16 16 16 16 16 17 17 17 17 17 17 18 18 18 18 18 18
3 4 4 3 3 4 6 6 6 7 7 4 4 5 6 6 8 8 8 9 10 11 11 11 11 11 11 11 12 12 13 13 14 14 14 14 14 14 14 14 14 14 15 15 15 15 15 16 16 16 16 17 17 17 17 17 17 17 18 18 18 18 18
2 3 2 2 2 3 4 4 4 4 3 2 3 5 5 6 8 8 8 8 9 10 10 11 11 11 11 12 12 12 13 13 13 13 13 13 13 13 13 14 14 14 14 15 15 15 15 15 15 16 16 16 17 17 17 17 17 17 18 18 18 18 18
1 2 2 2 2 2 2 2 2 3 2 2 3 4 5 6 7 7 8 8 9 9 10 10 10 11 11 12 12 12 12 13 13 13 13 13 13 13 13 13 14 14 14 14 15 15 15 15 15 15 16 16 16 17 17 17 17 17 18 18 18 18 18
1 1 2 2 1 2 2 1 2 3 3 3 3 4 4 5 6 6 7 8 8 8 9 9 10 10 11 11 12 12 12 13 13 13 13 13 13 13 13 13 13 14 14 14 15 15 15 15 15 15 15 16 16 17 17 17 17 17 17 17 18 18 18
1 1 2 1 1 1 2 2 2 3 3 3 3 4 4 4 5 5 6 7 7 8 8 9 9 9 10 11 11 12 12 12 12 12 12 12 12 12 12 13 13 13 13 14 14 15 15 15 15 15 15 16 16 16 17 17 17 17 17 17 17 18 18
0 1 1 1 1 1 2 2 2 2 2 3 3 4 4 4 5 5 6 6 7 7 8 8 9 9 10 10 11 11 11 11 11 11 11 11 11 12 12 12 13 13 13 13 14 14 15 15 15 15 15 16 16 16 16 16 17 17 17 17 17 17 17
0 0 1 1 1 1 2 2 2 2 1 2 2 3 3 4 5 5 6 6 6 7 7 8 8 9 9 10 10 10 10 11 11 11 11 11 11 12 12 12 12 13 13 13 13 14 14 15 15 15 15 16 16 16 16 16 17 17 17 17 17 17 17
-1 -0 0 0 0 0 1 1 1 1 1 1 2 3 3 4 5 5 6 6 6 6 7 7 8 8 9 9 10 10 10 10 11 11 11 11 11 11 12 12 12 13 13 13 13 14 14 14 15 15 15 15 16 16 16 16 16 17 17 17 17 17 17
-1 -1 -0 -0 0 0 1 1 1 1 1 2 3 3 4 4 5 6 6 6 6 6 6 7 8 8 8 9 9 9 10 10 10 10 11 11 11 11 11 12 12 13 13 13 13 14 14 14 14 15 15 15 15 16 16 16 16 16 16 17 17 17 17
-1 -0 0 0 1 1 1 1 1 2 2 2 3 4 4 5 5 5 6 6 6 6 6 7 7 8 8 8 8 9 9 9 9 10 10 10 10 10 11 11 12 12 13 13 13 13 14 14 14 14 15 15 15 15 16 16 16 16 16 16 16 16 17
-1 -0 0 1 1 2 2 2 2 2 2 2 3 4 4 4 5 5 5 6 6 6 6 6 6 7 7 7 8 8 8 8 9 9 9 9 9 10 10 11 11 11 12 13 13 13 13 13 14 14 14 14 15 15 15 15 15 16 16 16 16 16 16